Location: Banff
(51.1667°N, 115.5667°W)
Time: 21:24:09
(UTC+00:00)

X-37B - Pass Details

Date: 04 November 2020
Orbit: 384 x 390 km, 45.0° (Epoch: 26 November)

Event Time Altitude Azimuth Distance (km) Brightness Sun altitude
Exits shadow 13:55:08 - 238° (WSW) 2,086 3.9 -7.6°
Reaches altitude 10° 13:56:58 10° 225° (SW) 1,414 3.1 -7.4°
Maximum altitude 13:59:36 24° 170° (S) 862 2.7 -7.0°
Drops below altitude 10° 14:02:13 10° 114° (ESE) 1,413 5.2 -6.6°
Sets 14:04:31 0° 100° (E) 2,267 6.9 -6.2°
